TimeAEST,TemperatureF,Dew PointF,Humidity,Sea Level PressureIn,VisibilityMPH,Wind Direction,Wind SpeedMPH,Gust SpeedMPH,PrecipitationIn,Events,Conditions,WindDirDegrees,DateUTC
12:00 AM,79,73,77,29.81,,SE,10.4,,,,,130,2014-02-08 14:00:00
12:00 AM,78.8,73.4,83,29.80,6.2,SE,10.4,-,N/A,,Scattered Clouds,130,2014-02-08 14:00:00
12:30 AM,78.8,73.4,83,29.80,6.2,ESE,9.2,-,N/A,,Mostly Cloudy,110,2014-02-08 14:30:00
1:00 AM,79,74,81,29.81,,SE,9.2,,,,,130,2014-02-08 15:00:00
1:00 AM,78.8,73.4,83,29.80,6.2,SE,9.2,-,N/A,,Scattered Clouds,130,2014-02-08 15:00:00
1:30 AM,78.8,73.4,83,29.77,6.2,SE,10.4,-,N/A,,Mostly Cloudy,140,2014-02-08 15:30:00
1:52 AM,78.8,75.2,89,29.77,3.7,SE,6.9,-,N/A,Rain,Rain,140,2014-02-08 15:52:00
2:00 AM,78.8,75.2,89,29.77,6.2,SSE,5.8,-,N/A,Rain,Rain Showers,160,2014-02-08 16:00:00
2:07 AM,78.8,75.2,89,29.77,6.2,South,4.6,-,N/A,Rain,Light Rain Showers,170,2014-02-08 16:07:00
2:27 AM,78.8,75.2,89,29.77,6.2,SSE,5.8,-,N/A,Rain,Rain Showers,160,2014-02-08 16:27:00
2:30 AM,78.8,75.2,89,29.77,6.2,SSE,6.9,-,N/A,Rain,Light Rain Showers,160,2014-02-08 16:30:00
3:00 AM,79,77,90,29.78,,ESE,12.7,,,,Overcast,120,2014-02-08 17:00:00
3:00 AM,78.8,77.0,94,29.77,6.2,ESE,12.7,-,N/A,,Mostly Cloudy,110,2014-02-08 17:00:00
3:18 AM,80.6,77.0,89,29.77,6.2,East,18.4,-,N/A,,Mostly Cloudy,80,2014-02-08 17:18:00
3:30 AM,80.6,77.0,89,29.77,6.2,ENE,17.3,-,N/A,,Scattered Clouds,70,2014-02-08 17:30:00
4:00 AM,80,77,89,29.80,,ENE,15.0,,,,,70,2014-02-08 18:00:00
4:00 AM,80.6,77.0,89,29.77,6.2,ENE,15.0,-,N/A,,Scattered Clouds,70,2014-02-08 18:00:00
4:30 AM,80.6,77.0,89,29.77,6.2,ENE,15.0,-,N/A,,Scattered Clouds,70,2014-02-08 18:30:00
5:00 AM,80.6,77.0,89,29.80,6.2,ENE,12.7,-,N/A,,Scattered Clouds,70,2014-02-08 19:00:00
5:21 AM,78.8,77.0,94,29.80,3.7,ENE,18.4,-,N/A,Rain,Rain,70,2014-02-08 19:21:00
5:30 AM,77.0,75.2,94,29.80,4.3,East,15.0,-,N/A,Rain,Rain Showers,80,2014-02-08 19:30:00
6:00 AM,79,75,85,29.82,6,ENE,12.7,,,,Overcast,70,2014-02-08 20:00:00
6:00 AM,78.8,75.2,89,29.80,5.6,ENE,12.7,-,N/A,Rain,Light Rain Showers,70,2014-02-08 20:00:00
6:11 AM,78.8,77.0,94,29.83,3.7,East,15.0,-,N/A,Rain,Rain Showers,80,2014-02-08 20:11:00
6:15 AM,78.8,77.0,94,29.83,1.9,East,15.0,-,N/A,Rain,Rain Showers,90,2014-02-08 20:15:00
6:23 AM,78.8,77.0,94,29.83,3.1,East,13.8,-,N/A,Rain,Light Rain Showers,80,2014-02-08 20:23:00
6:30 AM,78.8,77.0,94,29.83,5.0,East,10.4,-,N/A,Rain,Light Rain Showers,80,2014-02-08 20:30:00
6:46 AM,78.8,77.0,94,29.83,3.1,East,8.1,-,N/A,Rain,Rain Showers,80,2014-02-08 20:46:00
6:56 AM,78.8,77.0,94,29.83,1.6,East,8.1,-,N/A,Rain,Heavy Rain Showers,80,2014-02-08 20:56:00
7:00 AM,78,76,92,29.86,,East,10.4,,,,,80,2014-02-08 21:00:00
7:00 AM,77.0,77.0,100,29.83,1.9,East,10.4,-,N/A,Rain,Rain Showers,80,2014-02-08 21:00:00
7:10 AM,77.0,75.2,94,29.83,3.1,NE,15.0,-,N/A,Rain,Light Rain Showers,50,2014-02-08 21:10:00
7:23 AM,77.0,77.0,100,29.83,2.2,NE,12.7,25.3,N/A,Rain,Heavy Rain Showers,40,2014-02-08 21:23:00
7:30 AM,77.0,77.0,100,29.83,2.5,NE,19.6,-,N/A,Rain,Heavy Rain Showers,40,2014-02-08 21:30:00
7:36 AM,77.0,77.0,100,29.83,3.7,ENE,18.4,-,N/A,Rain,Light Rain Showers,60,2014-02-08 21:36:00
7:50 AM,78.8,77.0,94,29.86,6.2,ENE,12.7,-,N/A,,Mostly Cloudy,60,2014-02-08 21:50:00
8:00 AM,78.8,77.0,94,29.86,6.2,ENE,15.0,-,N/A,Rain,Light Rain Showers,70,2014-02-08 22:00:00
8:30 AM,80.6,75.2,84,29.86,6.2,East,17.3,-,N/A,,Mostly Cloudy,80,2014-02-08 22:30:00
9:00 AM,82,76,78,29.87,12,East,16.1,,,Rain,Light Rain Showers,80,2014-02-08 23:00:00
9:00 AM,82.4,77.0,84,29.86,6.2,East,16.1,-,N/A,,Mostly Cloudy,80,2014-02-08 23:00:00
9:30 AM,82.4,77.0,84,29.86,6.2,East,15.0,-,N/A,,Mostly Cloudy,90,2014-02-08 23:30:00
10:00 AM,81,77,84,29.88,,East,17.3,,,,,80,2014-02-09 00:00:00
10:00 AM,80.6,77.0,89,29.86,1.6,East,17.3,-,N/A,Rain,Heavy Rain Showers,80,2014-02-09 00:00:00
10:06 AM,78.8,75.2,89,29.86,1.9,ENE,18.4,-,N/A,Rain,Rain Showers,70,2014-02-09 00:06:00
10:30 AM,78.8,77.0,94,29.86,4.3,East,11.5,-,N/A,Rain,Light Rain Showers,90,2014-02-09 00:30:00
11:00 AM,82.4,78.8,89,29.86,5.6,ENE,15.0,-,N/A,Rain,Light Rain Showers,60,2014-02-09 01:00:00
11:30 AM,78.8,77.0,94,29.86,3.7,ENE,19.6,-,N/A,Rain,Light Rain Showers,70,2014-02-09 01:30:00
11:46 AM,82.4,77.0,84,29.83,6.2,East,13.8,-,N/A,,Mostly Cloudy,90,2014-02-09 01:46:00
12:00 PM,83,78,80,29.85,11,East,17.3,,,,Mostly Cloudy,80,2014-02-09 02:00:00
12:00 PM,84.2,78.8,84,29.83,6.2,ENE,17.3,-,N/A,,Mostly Cloudy,70,2014-02-09 02:00:00
12:30 PM,84.2,78.8,84,29.83,6.2,East,13.8,-,N/A,,Mostly Cloudy,80,2014-02-09 02:30:00
1:00 PM,84,77,73,29.85,,East,18.4,,,,,80,2014-02-09 03:00:00
1:00 PM,84.2,77.0,79,29.83,3.7,East,18.4,-,N/A,Rain,Rain Showers,80,2014-02-09 03:00:00
1:08 PM,80.6,77.0,89,29.83,1.9,ENE,20.7,-,N/A,Rain,Rain Showers,70,2014-02-09 03:08:00
1:30 PM,78.8,77.0,94,29.83,3.1,ENE,17.3,-,N/A,Rain,Light Rain Showers,70,2014-02-09 03:30:00
1:46 PM,78.8,77.0,94,29.83,5.0,East,11.5,-,N/A,Rain,Light Rain Showers,80,2014-02-09 03:46:00
2:00 PM,78.8,77.0,94,29.83,6.2,East,9.2,-,N/A,Rain,Light Rain Showers,90,2014-02-09 04:00:00
2:30 PM,80.6,77.0,89,29.80,6.2,ESE,9.2,-,N/A,Rain,Light Rain,110,2014-02-09 04:30:00
3:00 PM,83,78,82,29.81,9,East,10.4,,,Rain,Light Rain,80,2014-02-09 05:00:00
3:00 PM,82.4,78.8,89,29.80,6.2,East,10.4,-,N/A,,Partly Cloudy,80,2014-02-09 05:00:00
3:30 PM,84.2,78.8,84,29.80,6.2,East,12.7,-,N/A,,Partly Cloudy,80,2014-02-09 05:30:00
3:50 PM,82.4,78.8,89,29.80,1.9,ENE,12.7,-,N/A,Rain,Light Rain Showers,60,2014-02-09 05:50:00
4:00 PM,80,78,90,29.81,,ENE,12.7,,,,,60,2014-02-09 06:00:00
4:00 PM,80.6,77.0,89,29.80,3.1,ENE,12.7,-,N/A,Rain,Light Rain Showers,60,2014-02-09 06:00:00
4:11 PM,80.6,77.0,89,29.80,3.7,ENE,11.5,-,N/A,,Partly Cloudy,70,2014-02-09 06:11:00
4:30 PM,82.4,77.0,84,29.77,6.2,ENE,13.8,-,N/A,,Partly Cloudy,70,2014-02-09 06:30:00
5:00 PM,84.2,77.0,79,29.80,6.2,East,16.1,-,N/A,,Partly Cloudy,80,2014-02-09 07:00:00
5:30 PM,82.4,78.8,89,29.80,6.2,ENE,16.1,-,N/A,,Partly Cloudy,70,2014-02-09 07:30:00
6:00 PM,81,78,89,29.82,3,East,15.0,,,Rain,Light Rain Showers,80,2014-02-09 08:00:00
6:00 PM,80.6,78.8,94,29.80,3.1,East,15.0,-,N/A,Rain,Light Rain Showers,80,2014-02-09 08:00:00
6:30 PM,80.6,78.8,94,29.83,1.2,East,10.4,-,N/A,Rain,Rain Showers,80,2014-02-09 08:30:00
6:52 PM,78.8,77.0,94,29.83,5.0,SE,5.8,-,N/A,,Partly Cloudy,130,2014-02-09 08:52:00
7:00 PM,79,77,91,29.86,,ESE,5.8,,,,,110,2014-02-09 09:00:00
7:00 PM,78.8,77.0,94,29.83,6.2,ESE,5.8,-,N/A,,Partly Cloudy,110,2014-02-09 09:00:00
7:30 PM,80.6,77.0,89,29.86,6.2,East,11.5,-,N/A,,Partly Cloudy,90,2014-02-09 09:30:00
8:00 PM,80.6,78.8,94,29.86,4.3,East,10.4,-,N/A,,Mostly Cloudy,90,2014-02-09 10:00:00
8:30 PM,80.6,78.8,94,29.86,3.1,East,9.2,-,N/A,Rain,Light Rain Showers,90,2014-02-09 10:30:00
9:00 PM,81,78,88,29.88,5,East,8.1,,,Rain,Light Rain Showers,100,2014-02-09 11:00:00
9:00 PM,80.6,78.8,94,29.86,5.0,East,8.1,-,N/A,,Mostly Cloudy,100,2014-02-09 11:00:00
9:17 PM,78.8,77.0,94,29.86,4.3,NE,9.2,-,N/A,Rain,Light Rain Showers,50,2014-02-09 11:17:00
9:30 PM,78.8,77.0,94,29.86,3.7,NE,9.2,-,N/A,,Mostly Cloudy,40,2014-02-09 11:30:00
10:00 PM,81,77,85,29.89,,ESE,12.7,,,,,120,2014-02-09 12:00:00
10:00 PM,80.6,77.0,89,29.86,6.2,ESE,12.7,-,N/A,,Mostly Cloudy,120,2014-02-09 12:00:00
10:15 PM,80.6,77.0,89,29.89,1.2,ESE,13.8,-,N/A,Rain,Rain Showers,110,2014-02-09 12:15:00
10:30 PM,78.8,77.0,94,29.86,3.7,SE,8.1,-,N/A,Rain,Light Rain Showers,130,2014-02-09 12:30:00
10:35 PM,78.8,77.0,94,29.86,6.2,SE,9.2,-,N/A,Rain,Heavy Rain Showers,130,2014-02-09 12:35:00
11:00 PM,80.6,77.0,89,29.89,5.6,ESE,12.7,-,N/A,Rain,Light Rain Showers,120,2014-02-09 13:00:00
11:30 PM,78.8,77.0,94,29.86,6.2,SE,11.5,-,N/A,,Scattered Clouds,130,2014-02-09 13:30:00